South Lake Tahoe, CA

7:57 PM PST on February 24, 2017 (GMT -0800)
Lake Tahoe

Weather History for KTVL - March, 2013

Change the Weather History Date:

Saturday, March 23, 2013

  Actual Average Record
Temperature  
Mean Temperature 37 °F 37 °F  
Max Temperature 54 °F 50 °F 62 °F (2004)
Min Temperature 19 °F 24 °F 10 °F (1962)
Degree Days  
Heating Degree Days 28 28  
Month to date heating degree days 592 693  
Since 1 July heating degree days 5610 5930  
Cooling Degree Days 0 0  
Month to date cooling degree days 0 0  
Year to date cooling degree days 0 0  
Moisture  
Dew Point 16 °F    
Average Humidity 47    
Maximum Humidity 77    
Minimum Humidity 16    
Precipitation  
Precipitation 0.00 in - 1.96 in (1983)
Month to date precipitation 0.89  
Year to date precipitation 1.79  
Sea Level Pressure  
Sea Level Pressure 30.08 in    
Wind  
Wind Speed 2 mph (South)    
Max Wind Speed 14 mph    
Max Gust Speed 23 mph    
Visibility 10 miles    
Events      
T = Trace of Precipitation, MM = Missing Value Source: NWS Daily Summary

Daily Weather History Graph

Daily Weather History Graph

Search for Another Location

Airport or City:

Trip Planner

Search our weather history database for the weather conditions in past years. The results will help you decide how hot, cold, wet, or windy it might be!

Date:

Astronomy

Mar. 23, 2013 Rise Set
Actual Time 6:58 AM PDT 7:15 PM PDT
Civil Twilight 6:31 AM PDT 7:41 PM PDT
Nautical Twilight 6:00 AM PDT 8:13 PM PDT
Astronomical Twilight 5:28 AM PDT 8:45 PM PDT
Moon 3:48 PM PDT (3/23) 4:35 AM PDT (3/23)
Length of Visible Light 13h 10m
Length of Day
12h 17m
Waxing Gibbous, 86% of the Moon is Illuminated
Mar 23
Waxing Gibbous
Mar 27
Full
Apr 2
Last Quarter
Apr 10
New
Apr 18
First Quarter

Hourly Weather History & Observations

Time (PDT) Temp. Windchill Dew Point Humidity Pressure Visibility Wind Dir Wind Speed Gust Speed Precip Events Conditions
12:53 AM 27.0 °F - 15.1 °F 61% 30.08 in 10.0 mi Calm Calm - N/A   Clear
1:53 AM 26.1 °F - 16.0 °F 66% 30.08 in 10.0 mi Calm Calm - N/A   Clear
2:53 AM 24.1 °F - 15.1 °F 69% 30.09 in 10.0 mi Calm Calm - N/A   Clear
3:53 AM 21.9 °F - 15.1 °F 75% 30.08 in 10.0 mi Calm Calm - N/A   Clear
4:53 AM 21.0 °F - 14.0 °F 74% 30.08 in 10.0 mi Calm Calm - N/A   Clear
5:53 AM 19.9 °F - 14.0 °F 78% 30.10 in 10.0 mi Calm Calm - N/A   Clear
6:53 AM 19.9 °F - 12.9 °F 74% 30.13 in 10.0 mi Calm Calm - N/A   Clear
7:53 AM 21.0 °F 13.4 °F 12.9 °F 71% 30.17 in 10.0 mi SSW 5.8 mph - N/A   Clear
8:53 AM 28.9 °F - 12.0 °F 49% 30.14 in 10.0 mi Calm Calm - N/A   Clear
9:53 AM 37.0 °F - 9.0 °F 31% 30.12 in 10.0 mi Calm Calm - N/A   Clear
10:53 AM 43.0 °F 41.3 °F 10.0 °F 26% 30.10 in 10.0 mi NE 3.5 mph - N/A   Clear
11:53 AM 48.0 °F - 15.1 °F 27% 30.06 in 10.0 mi NNE 4.6 mph - N/A   Clear
12:53 PM 48.9 °F - 19.9 °F 32% 30.05 in 10.0 mi Calm Calm - N/A   Clear
1:53 PM 53.1 °F - 15.1 °F 22% 30.02 in 10.0 mi SSW 10.4 mph 16.1 mph N/A   Clear
2:53 PM 52.0 °F - 7.0 °F 16% 30.03 in 10.0 mi SSW 12.7 mph 19.6 mph N/A   Clear
3:53 PM 52.0 °F - 14.0 °F 22% 30.04 in 10.0 mi Variable 6.9 mph 17.3 mph N/A   Clear
4:53 PM 53.1 °F - 17.1 °F 24% 30.03 in 10.0 mi Variable 4.6 mph - N/A   Clear
5:53 PM 51.1 °F - 18.0 °F 27% 30.04 in 10.0 mi Variable 4.6 mph - N/A   Clear
6:53 PM 45.0 °F 42.6 °F 21.0 °F 39% 30.07 in 10.0 mi Variable 4.6 mph - N/A   Clear
7:53 PM 39.9 °F - 21.0 °F 47% 30.10 in 10.0 mi Calm Calm - N/A   Clear
8:53 PM 37.0 °F - 21.0 °F 52% 30.10 in 10.0 mi Calm Calm - N/A   Clear
9:53 PM 35.1 °F - 21.9 °F 59% 30.10 in 10.0 mi Calm Calm - N/A   Clear
10:53 PM 33.1 °F - 21.9 °F 64% 30.09 in 10.0 mi Calm Calm - N/A   Clear
11:53 PM 30.9 °F - 21.0 °F 67% 30.07 in 10.0 mi Calm Calm - N/A   Clear